Dewpoint
28 26 24 21 20 19 17 18 17 22 27 32 35 35 36 38 38 37 36 35 34 34 33 33 33 34 34 32 29 29 28 27 27 28 32 33 34 33 34 32 31 29 25 25
21 31 27 21 20 26 25 22 24 29 32 35 36 37 37 37 37 36 35 35 34 34 32 31 32 33 34 33 30 29 29 28 30 29 31 31 32 33 32 30 32 24 23 24
5 29 24 17 25 22 24 27 26 24 31 35 35 36 36 36 36 35 35 35 34 32 32 33 33 32 23 23 24 24 26 30 30 29 31 32 32 34 35 34 28 22 24 25
16 22 4 23 28 27 31 34 34 35 36 36 36 37 37 36 35 34 34 32 32 33 33 28 27 21 20 20 19 20 28 31 32 32 32 33 34 34 32 30 26 21 25 24
16 20 18 25 28 28 26 30 37 37 37 37 36 37 37 37 36 34 33 33 34 32 26 21 17 18 18 18 19 26 29 31 31 34 34 35 35 34 33 33 24 25 25 24
27 12 5 19 30 30 29 25 38 38 37 35 34 30 31 35 35 32 33 33 24 19 15 15 16 17 18 18 21 26 28 29 32 34 34 35 34 34 32 23 26 25 25 25
25 20 22 26 31 30 25 21 39 38 37 35 32 32 34 35 32 32 23 15 16 16 16 16 18 19 19 19 23 27 28 30 34 35 34 34 33 26 24 26 25 24 23 23
28 26 16 31 33 27 28 39 39 38 37 35 35 34 32 32 23 16 15 16 17 17 18 19 21 22 22 21 24 28 31 32 32 32 32 32 24 24 25 25 23 22 20 20
27 23 28 35 32 39 40 38 37 37 36 35 33 31 27 18 16 15 16 18 19 20 20 22 23 24 24 24 26 29 32 32 31 31 30 29 23 22 23 23 21 22 21 20
31 31 34 38 39 40 39 38 37 37 36 34 29 25 18 16 16 17 19 20 21 21 23 24 26 26 27 28 30 30 31 29 28 29 29 26 24 23 22 21 21 22 21 20
33 38 39 39 39 39 38 38 36 35 33 30 20 17 16 16 18 21 21 22 22 23 25 26 26 25 28 32 33 33 32 30 26 29 30 28 25 22 23 23 22 22 22 21
30 35 35 36 39 39 37 36 32 30 26 18 17 16 17 19 22 23 23 23 24 25 26 26 25 26 28 32 33 31 30 29 27 27 27 25 25 25 24 25 25 26 26 23
36 41 39 39 39 39 36 32 32 23 19 17 18 20 21 22 23 25 23 24 25 26 27 26 26 27 29 30 32 30 29 29 27 27 25 22 20 23 21 21 26 24 26 25
39 38 38 38 37 38 35 29 20 19 19 20 22 24 24 24 25 24 23 26 27 27 27 27 28 26 27 30 32 28 28 30 27 24 21 20 23 22 23 24 23 21 24 25
38 38 37 38 38 36 30 19 19 19 21 23 24 24 25 25 25 25 27 28 28 28 28 28 27 26 28 32 29 27 27 26 28 24 20 21 23 23 23 25 22 22 21 22
39 37 37 35 31 23 19 20 20 22 23 24 23 24 26 27 27 28 28 28 27 26 26 26 27 28 32 30 27 25 24 25 25 23 20 20 22 23 24 25 23 20 20 21
35 30 22 20 20 21 22 24 24 23 24 24 25 26 26 27 28 28 27 26 26 26 27 27 28 30 29 27 26 24 24 23 23 22 20 21 21 21 23 24 22 21 21 21
26 23 24 23 21 22 24 24 24 24 24 26 26 26 26 27 27 26 26 26 26 26 26 28 29 27 27 26 24 23 21 20 21 21 22 21 22 23 22 22 22 22 23 23
25 24 23 22 21 20 19 19 22 25 25 25 26 26 26 27 27 27 26 25 25 24 25 28 30 27 26 26 25 23 20 19 20 20 19 20 22 23 23 23 23 24 23 23
22 22 20 20 21 20 20 23 25 26 27 28 27 27 27 27 28 28 26 25 26 26 28 29 30 27 26 26 26 26 24 21 20 20 22 21 21 19 20 21 22 22 22 23
22 23 22 22 22 23 24 25 26 26 27 28 28 28 28 27 28 29 26 25 25 26 27 29 29 28 27 27 26 25 24 23 22 21 22 24 22 22 22 23 23 23 24 23
21 21 21 23 23 24 25 26 27 27 28 28 27 26 27 27 28 29 28 26 27 27 30 30 30 30 30 29 28 27 26 23 22 22 22 23 24 23 22 20 22 22 23 23
23 24 24 25 24 25 26 27 27 27 27 27 27 29 29 29 29 28 26 27 29 31 31 30 30 30 30 30 30 29 27 24 24 22 21 22 24 24 22 21 22 21 23 23
26 26 25 26 26 26 25 26 27 28 29 28 29 31 30 27 24 25 27 29 30 30 30 31 30 31 31 30 28 27 27 26 24 24 23 23 24 25 23 23 20 22 22 23
25 25 26 26 26 26 27 27 29 29 28 29 29 29 28 27 25 24 27 28 29 29 29 29 31 31 30 30 29 27 26 26 26 25 25 25 26 25 23 22 21 21 21 23
27 27 27 28 28 28 28 28 28 28 28 27 27 27 26 25 27 27 28 29 28 27 26 26 26 29 30 29 30 29 28 28 27 26 26 26 26 25 24 23 22 22 23 23
28 28 28 28 29 29 28 29 29 28 27 27 27 27 26 26 28 29 27 24 22 21 23 24 24 25 26 27 29 28 29 30 30 28 27 27 26 25 24 23 22 23 23 22
Wind_Speed
4 3 1 2 3 6 6 6 6 4 5 9 11 15 12 11 9 8 8 10 10 10 11 10 10 11 12 12 13 14 13 13 14 15 7 11 11 10 9 10 6 6 4 3
0 6 6 4 9 2 3 2 7 12 10 7 9 11 9 9 7 8 8 8 8 9 10 12 14 15 15 15 16 16 16 17 18 16 11 9 10 12 7 8 11 6 3 6
4 6 6 6 7 3 3 3 3 8 7 10 8 8 8 5 3 3 5 6 7 10 13 15 14 11 13 13 12 13 12 10 11 9 6 5 8 8 12 12 14 1 3 5
2 2 5 2 7 6 13 4 12 15 13 9 7 7 7 4 3 2 4 6 11 14 16 14 12 11 10 11 13 13 9 8 9 7 10 9 6 5 6 3 12 4 7 4
3 5 7 1 5 6 5 6 10 14 11 5 5 7 3 1 1 2 5 9 11 10 8 6 7 9 11 15 10 6 9 9 12 9 10 9 6 8 12 10 7 6 6 4
4 3 6 6 5 6 6 13 13 12 11 5 5 5 3 3 4 7 10 7 5 6 5 9 15 15 15 10 6 7 8 11 10 9 11 9 9 13 9 0 8 7 5 3
6 6 9 12 6 3 3 9 14 12 10 7 4 5 4 3 6 5 5 7 8 11 13 14 16 17 17 13 5 5 8 9 8 10 9 7 10 5 6 8 7 5 2 2
5 5 10 10 7 9 6 11 14 10 9 7 5 5 3 3 3 7 10 9 10 12 14 14 14 15 17 17 7 5 5 5 5 7 8 4 2 2 3 7 4 2 0 1
16 10 6 13 6 2 11 13 9 9 8 8 7 4 1 6 6 7 7 9 11 13 13 13 13 13 16 17 12 5 3 5 8 10 10 8 4 5 5 3 1 1 2 4
5 6 11 8 6 6 10 10 9 7 9 9 5 2 6 5 6 7 8 10 10 12 13 14 12 13 14 17 9 4 5 6 6 8 8 6 4 1 5 3 3 4 5 7
5 1 5 3 4 12 9 8 8 9 8 5 7 8 5 4 4 4 7 10 11 11 13 12 12 16 14 12 11 11 10 10 8 5 2 3 2 3 3 1 2 4 5 5
16 9 6 6 16 10 9 10 11 9 7 9 9 7 5 4 2 5 10 12 13 13 13 11 16 14 14 10 10 13 11 7 4 5 5 4 4 4 4 3 4 6 7 8
8 5 3 12 14 9 9 12 10 9 12 10 7 7 4 2 4 8 13 12 13 15 12 14 15 16 14 14 10 10 12 4 2 2 3 6 7 5 8 9 7 9 8 8
17 17 9 9 7 10 7 7 13 13 11 10 8 4 3 4 6 11 13 14 13 14 14 14 15 16 15 15 11 7 7 6 3 1 4 8 8 8 8 8 8 10 8 4
9 3 7 13 14 13 8 12 12 9 7 6 4 4 4 6 11 13 13 14 15 14 13 14 15 16 14 11 7 6 7 8 6 3 4 6 9 9 8 7 8 9 9 4
11 12 14 12 10 13 12 9 8 4 3 3 5 7 5 8 10 12 12 12 15 17 16 16 15 14 8 6 6 6 5 3 1 4 6 8 9 9 9 8 9 10 10 8
19 14 15 15 13 9 9 7 5 2 2 4 6 6 10 9 11 11 12 13 12 15 16 17 17 8 10 6 5 6 3 6 7 8 7 9 10 10 9 9 11 11 12 10
15 15 14 10 9 7 5 4 2 3 4 5 8 8 8 7 11 14 14 14 16 14 15 17 8 8 10 9 7 7 6 8 9 8 8 10 10 10 11 12 13 13 14 12
18 14 11 10 7 4 2 4 4 5 8 9 9 12 10 10 11 12 15 15 18 19 16 12 11 10 11 11 9 7 10 11 11 9 10 12 11 11 11 12 13 12 12 12
12 9 8 5 2 1 4 5 6 8 10 9 10 12 13 14 14 15 14 15 18 18 17 14 13 13 11 12 13 11 14 14 15 14 13 13 12 12 12 12 12 12 14 13
7 5 3 3 4 5 7 10 10 12 13 11 12 15 15 15 14 14 15 18 16 14 14 16 15 15 12 12 12 14 14 16 16 16 16 14 15 14 12 11 11 11 12 11
4 5 6 6 7 10 11 11 10 13 14 15 14 9 8 12 15 13 13 18 17 14 12 12 13 15 16 17 13 14 15 16 16 16 16 15 14 15 13 13 11 11 12 12
6 6 7 9 11 12 11 12 14 13 14 14 11 7 8 13 13 14 19 11 12 15 16 15 16 19 21 16 14 14 15 16 17 17 18 17 15 15 14 12 11 11 9 10
5 7 9 10 10 11 14 15 13 13 11 11 8 7 9 13 12 9 14 15 16 18 16 16 17 19 18 16 15 14 15 17 17 17 16 17 15 14 14 13 12 11 11 10
9 10 9 12 14 16 16 16 13 12 7 8 9 10 10 13 13 15 15 14 15 15 16 17 18 18 16 15 16 16 17 17 18 17 16 15 15 15 15 15 13 11 11 10
14 15 15 15 16 16 16 13 13 11 9 13 12 11 12 14 13 13 14 15 14 15 16 16 16 16 16 16 17 18 18 18 18 18 18 16 14 14 14 13 11 11 10 9
15 14 16 17 15 16 15 12 11 14 13 13 14 13 12 12 11 9 9 10 13 15 14 14 16 18 19 19 19 18 17 17 19 18 16 15 12 12 12 10 9 10 8 6
Wind_Direction
99 52 104 226 231 304 279 225 232 276 170 125 116 120 116 117 102 78 42 25 16 5 341 324 331 324 312 306 289 294 291 296 299 309 277 245 250 259 264 278 267 236 221 84
246 17 19 280 305 280 192 198 180 126 122 137 114 103 98 90 63 31 14 5 348 328 325 331 322 326 332 337 338 344 333 316 307 310 294 245 248 256 272 297 294 217 126 149
240 352 346 280 196 219 135 68 230 220 160 145 138 140 134 104 70 27 337 307 321 320 324 329 339 352 6 352 341 338 335 7 8 341 316 309 307 339 338 308 271 238 128 143
222 13 242 199 295 178 131 89 121 120 137 143 165 156 143 114 70 351 319 339 333 332 343 355 360 355 341 328 320 334 0 8 0 343 312 294 316 49 56 299 280 279 146 96
210 210 306 187 192 168 185 223 167 153 156 148 169 156 201 14 274 306 315 324 329 342 339 346 337 324 327 337 357 23 9 357 340 319 301 266 244 238 249 240 264 127 103 66
155 206 242 211 159 123 93 272 182 170 173 183 160 302 222 267 302 329 333 342 350 330 351 349 346 339 339 347 1 359 346 339 329 323 302 280 262 278 297 199 119 117 83 51
183 233 280 236 212 127 191 258 168 176 177 178 213 184 193 277 318 353 48 25 35 21 2 345 340 349 347 333 301 320 336 346 333 331 328 322 324 307 100 117 130 108 103 30
160 212 272 191 135 202 207 154 168 169 179 186 165 171 191 284 75 50 33 37 13 4 353 343 351 350 341 329 286 295 340 358 11 353 325 309 286 74 128 152 138 154 11 5
192 215 232 194 222 167 149 157 165 172 175 165 165 199 105 97 60 41 47 13 4 357 343 342 342 341 331 324 302 306 345 355 343 337 334 335 88 104 133 156 125 312 288 340
170 241 226 193 113 118 137 148 159 165 162 166 169 132 108 86 48 52 15 5 349 343 339 330 335 346 344 333 324 300 330 316 328 332 349 45 41 101 136 108 39 346 334 335
232 311 105 189 184 151 136 134 142 157 161 181 136 117 107 75 67 21 4 350 343 335 324 323 341 335 338 346 345 323 310 308 324 347 347 354 15 109 101 216 262 332 320 298
250 217 201 208 177 159 156 167 167 165 152 117 120 116 105 92 35 9 354 343 334 324 314 323 331 323 324 321 330 321 301 315 356 24 75 65 41 11 347 312 307 317 299 249
250 146 135 139 148 152 168 177 188 151 129 120 99 108 90 29 0 349 342 331 322 316 314 326 325 324 325 323 308 307 306 285 352 14 342 328 323 317 322 330 341 339 341 337
131 115 105 155 179 178 164 156 115 108 110 114 120 93 39 1 337 334 327 319 316 317 315 321 325 319 315 309 305 303 321 299 283 261 8 322 325 317 309 314 319 329 332 340
155 115 158 156 149 160 132 127 116 111 119 104 72 23 348 331 326 321 321 322 320 319 319 325 319 312 313 296 287 305 317 324 307 274 6 312 303 311 308 301 313 307 315 325
147 127 133 136 126 121 117 113 117 118 71 21 341 331 316 317 315 319 324 329 331 323 321 316 300 298 307 287 296 308 334 359 291 321 334 315 307 300 306 293 295 295 309 306
135 124 116 109 106 106 103 108 101 62 336 307 312 318 316 321 322 326 324 320 309 303 299 306 299 307 300 280 303 319 234 283 273 287 304 298 298 300 295 284 282 295 293 284
96 91 87 123 129 116 90 63 7 303 290 298 314 310 305 308 313 312 317 314 312 308 304 291 262 309 304 289 282 274 282 305 297 284 302 301 295 290 285 289 288 285 285 287
98 122 117 102 93 77 9 325 305 297 302 305 300 291 284 268 280 310 315 313 315 306 303 290 279 299 288 282 283 281 265 273 280 283 286 291 294 292 292 287 288 289 278 280
110 88 76 82 95 322 306 297 287 292 292 291 284 283 289 291 287 294 305 302 294 287 287 290 280 275 270 271 272 270 267 267 273 277 277 276 281 286 290 293 292 284 280 271
78 55 30 337 303 292 272 274 282 286 288 286 282 288 295 300 294 289 302 308 300 294 291 296 288 267 260 255 256 262 257 255 261 273 273 274 275 275 281 282 288 293 288 273
34 353 334 313 297 293 291 283 273 277 285 291 289 286 295 308 301 285 271 283 291 297 295 292 287 271 259 258 253 252 249 252 256 263 266 267 269 268 265 270 273 285 292 275
330 314 304 295 290 288 289 284 288 285 284 286 286 253 279 286 286 304 308 305 289 290 289 286 285 291 276 266 256 252 250 255 256 259 262 263 263 262 258 257 260 272 282 300
310 302 295 294 289 288 288 291 290 287 282 272 220 254 278 296 299 278 284 289 291 293 296 291 291 291 282 276 259 256 256 253 251 252 255 256 257 252 251 243 256 262 271 275
311 305 299 298 297 291 287 287 293 291 254 230 255 254 255 267 275 302 295 297 304 314 312 306 299 295 293 286 266 255 252 248 247 246 243 243 247 241 241 243 246 256 265 267
314 305 297 291 286 288 286 286 281 273 254 273 275 266 269 274 286 296 299 302 317 329 327 320 318 309 299 295 286 272 264 258 253 249 242 234 233 237 237 239 246 257 259 262
324 321 318 316 307 294 284 263 255 267 270 263 275 279 279 289 301 305 335 355 347 335 328 334 333 328 321 313 299 289 283 276 265 255 245 228 224 225 226 223 242 253 250 256